{"data":{"norad_id":66525,"intl_designator":"2025-265K","name":"STARLINK-35975","alt_names":[],"object_type":"PAYLOAD","status":"ACTIVE","operator":null,"country":"US","launch_date":"2025-11-19","launch_site_code":"AFETR","launch_vehicle":null,"mission":null,"orbit_class":"UNKNOWN","rcs_meters":null,"size_class":null,"mass_kg":null,"dimensions":null,"purposes":["comms"],"wikipedia_slug":null,"has_3d_model":false,"image_url":null,"decayed_at":null,"tle_current":{"epoch":"2026-05-25T04:33:25.972416Z","epoch_age_seconds":48840,"freshness":"FRESH","line1":"1 66525U 25265K   26145.18988394  .00012243  00000+0  45360-3 0  9994","line2":"2 66525  42.9983 205.8611 0001378 278.4014  81.6681 15.27586530 28810","mean_motion":15.2758653,"eccentricity":0.0001378,"inclination_deg":42.9983,"raan_deg":205.8611,"arg_perigee_deg":278.4014,"mean_anomaly_deg":81.6681,"bstar":0.0004536,"rev_number":2881,"period_min":94.266345749985,"perigee_km":482.08407419053,"apogee_km":483.97501168977,"semimajor_km":6861.1665429402,"source":"CELESTRAK","updated_at":"2026-05-25T13:38:21.251041Z"}}}